Time,TemperatureF,DewpointF,PressureIn,WindDirection,WindDirectionDegrees,WindSpeedMPH,WindSpeedGustMPH,Humidity,HourlyPrecipIn,Conditions,Clouds,dailyrainin,SolarRadiationWatts/m^2,SoftwareType,DateUTC
2013-01-14 00:12:00,15.0,12.0,-100.00,ESE,123,0.0,3.0,88,0.00,,,0.00,0.000000,,2013-01-14 08:12:00,
2013-01-14 00:22:00,15.0,12.0,-100.00,ESE,123,0.0,3.0,88,0.00,,,0.00,0.000000,,2013-01-14 08:22:00,
2013-01-14 00:32:00,15.0,12.0,-100.00,ESE,123,0.0,3.0,88,0.00,,,0.00,0.000000,,2013-01-14 08:32:00,
2013-01-14 00:42:00,15.0,12.0,-100.00,ESE,123,0.0,3.0,88,0.00,,,0.00,0.000000,,2013-01-14 08:42:00,
2013-01-14 01:12:00,16.0,13.0,-100.00,SE,133,0.0,4.0,88,0.00,,,-99.99,0.000000,,2013-01-14 09:12:00,
2013-01-14 01:22:00,16.0,13.0,-100.00,SE,133,0.0,4.0,88,0.00,,,-99.99,0.000000,,2013-01-14 09:22:00,
2013-01-14 01:33:00,16.0,13.0,-100.00,SE,133,0.0,4.0,88,0.00,,,-99.99,0.000000,,2013-01-14 09:33:00,
2013-01-14 01:42:00,16.0,13.0,-100.00,SE,133,0.0,4.0,88,0.00,,,-99.99,0.000000,,2013-01-14 09:42:00,
2013-01-14 02:12:00,16.0,13.0,-100.00,ESE,120,0.0,3.0,89,0.00,,,0.00,0.000000,,2013-01-14 10:12:00,
2013-01-14 02:22:00,16.0,13.0,-100.00,ESE,120,0.0,3.0,89,0.00,,,0.00,0.000000,,2013-01-14 10:22:00,
2013-01-14 02:32:00,16.0,13.0,-100.00,ESE,120,0.0,3.0,89,0.00,,,0.00,0.000000,,2013-01-14 10:32:00,
2013-01-14 02:42:00,16.0,13.0,-100.00,ESE,120,0.0,3.0,89,0.00,,,0.00,0.000000,,2013-01-14 10:42:00,
2013-01-14 03:12:00,17.0,14.0,-100.00,SE,137,0.0,3.0,89,0.00,,,0.00,0.000000,,2013-01-14 11:12:00,
2013-01-14 03:22:00,17.0,14.0,-100.00,SE,137,0.0,3.0,89,0.00,,,0.00,0.000000,,2013-01-14 11:22:00,
2013-01-14 03:32:00,17.0,14.0,-100.00,SE,137,0.0,3.0,89,0.00,,,0.00,0.000000,,2013-01-14 11:32:00,
2013-01-14 03:42:00,17.0,14.0,-100.00,SE,137,0.0,3.0,89,0.00,,,0.00,0.000000,,2013-01-14 11:42:00,
2013-01-14 04:12:00,17.0,15.0,-100.00,SSE,154,1.0,5.0,91,0.00,,,0.00,0.000000,,2013-01-14 12:12:00,
2013-01-14 04:22:00,17.0,15.0,-100.00,SSE,154,1.0,5.0,91,0.00,,,0.00,0.000000,,2013-01-14 12:22:00,
2013-01-14 04:33:00,17.0,15.0,-100.00,SSE,154,1.0,5.0,91,0.00,,,0.00,0.000000,,2013-01-14 12:33:00,
2013-01-14 04:42:00,17.0,15.0,-100.00,SSE,154,1.0,5.0,91,0.00,,,0.00,0.000000,,2013-01-14 12:42:00,
2013-01-14 05:12:00,17.0,15.0,-100.00,SSE,156,0.0,3.0,91,0.00,,,0.00,0.000000,,2013-01-14 13:12:00,
2013-01-14 05:22:00,17.0,15.0,-100.00,SSE,156,0.0,3.0,91,0.00,,,0.00,0.000000,,2013-01-14 13:22:00,
2013-01-14 05:33:00,17.0,15.0,-100.00,SSE,156,0.0,3.0,91,0.00,,,0.00,0.000000,,2013-01-14 13:33:00,
2013-01-14 05:43:00,17.0,15.0,-100.00,SSE,156,0.0,3.0,91,0.00,,,0.00,0.000000,,2013-01-14 13:43:00,
2013-01-14 06:12:00,17.0,15.0,-100.00,SSE,151,2.0,5.0,91,0.00,,,-99.99,0.000000,,2013-01-14 14:12:00,
2013-01-14 06:22:00,17.0,15.0,-100.00,SSE,151,2.0,5.0,91,0.00,,,-99.99,0.000000,,2013-01-14 14:22:00,
2013-01-14 06:33:00,17.0,15.0,-100.00,SSE,151,2.0,5.0,91,0.00,,,-99.99,0.000000,,2013-01-14 14:33:00,
2013-01-14 06:42:00,17.0,15.0,-100.00,SSE,151,2.0,5.0,91,0.00,,,-99.99,0.000000,,2013-01-14 14:42:00,
2013-01-14 07:12:00,18.0,16.0,-100.00,SE,136,4.0,6.0,91,0.00,,,0.00,0.000000,,2013-01-14 15:12:00,
2013-01-14 07:23:00,18.0,16.0,-100.00,SE,136,4.0,6.0,91,0.00,,,0.00,0.000000,,2013-01-14 15:23:00,
2013-01-14 07:33:00,18.0,16.0,-100.00,SE,136,4.0,6.0,91,0.00,,,0.00,0.000000,,2013-01-14 15:33:00,
2013-01-14 07:42:00,18.0,16.0,-100.00,SE,136,4.0,6.0,91,0.00,,,0.00,0.000000,,2013-01-14 15:42:00,
2013-01-14 08:12:00,18.0,16.0,-100.00,SE,141,5.0,7.0,92,0.00,,,0.00,0.000000,,2013-01-14 16:12:00,
2013-01-14 08:23:00,18.0,16.0,-100.00,SE,141,5.0,7.0,92,0.00,,,0.00,0.000000,,2013-01-14 16:23:00,
2013-01-14 08:33:00,18.0,16.0,-100.00,SE,141,5.0,7.0,92,0.00,,,0.00,0.000000,,2013-01-14 16:33:00,
2013-01-14 08:42:00,18.0,16.0,-100.00,SE,141,5.0,7.0,92,0.00,,,0.00,0.000000,,2013-01-14 16:42:00,
2013-01-14 09:12:00,19.0,17.0,-100.00,SE,128,0.0,7.0,90,0.00,,,0.00,1.000000,,2013-01-14 17:12:00,
2013-01-14 09:22:00,19.0,17.0,-100.00,SE,128,0.0,7.0,90,0.00,,,0.00,1.000000,,2013-01-14 17:22:00,
2013-01-14 09:33:00,19.0,17.0,-100.00,SE,128,0.0,7.0,90,0.00,,,0.00,1.000000,,2013-01-14 17:33:00,
2013-01-14 09:42:00,19.0,17.0,-100.00,SE,128,0.0,7.0,90,0.00,,,0.00,1.000000,,2013-01-14 17:42:00,
2013-01-14 10:12:00,21.0,17.0,-100.00,East,94,0.0,4.0,84,0.00,,,0.00,81.000000,,2013-01-14 18:12:00,
2013-01-14 10:22:00,21.0,17.0,-100.00,East,94,0.0,4.0,84,0.00,,,0.00,81.000000,,2013-01-14 18:22:00,
2013-01-14 10:33:00,21.0,17.0,-100.00,East,94,0.0,4.0,84,0.00,,,0.00,81.000000,,2013-01-14 18:33:00,
2013-01-14 10:42:00,21.0,17.0,-100.00,East,94,0.0,4.0,84,0.00,,,0.00,81.000000,,2013-01-14 18:42:00,
2013-01-14 11:12:00,21.0,17.0,-100.00,ENE,62,4.0,6.0,86,0.00,,,0.00,191.000000,,2013-01-14 19:12:00,
2013-01-14 11:22:00,21.0,17.0,-100.00,ENE,62,4.0,6.0,86,0.00,,,0.00,191.000000,,2013-01-14 19:22:00,
2013-01-14 11:32:00,21.0,17.0,-100.00,ENE,62,4.0,6.0,86,0.00,,,0.00,191.000000,,2013-01-14 19:32:00,
2013-01-14 11:42:00,21.0,17.0,-100.00,ENE,62,4.0,6.0,86,0.00,,,0.00,191.000000,,2013-01-14 19:42:00,
2013-01-14 12:12:00,22.0,18.0,-100.00,ENE,67,3.0,6.0,83,0.00,,,0.00,185.000000,,2013-01-14 20:12:00,
2013-01-14 12:22:00,22.0,18.0,-100.00,ENE,67,3.0,6.0,83,0.00,,,0.00,185.000000,,2013-01-14 20:22:00,
2013-01-14 12:33:00,22.0,18.0,-100.00,ENE,67,3.0,6.0,83,0.00,,,0.00,185.000000,,2013-01-14 20:33:00,
2013-01-14 12:42:00,22.0,18.0,-100.00,ENE,67,3.0,6.0,83,0.00,,,0.00,185.000000,,2013-01-14 20:42:00,
2013-01-14 13:02:00,26.0,19.0,-100.00,NNE,25,1.0,4.0,74,0.00,,,0.00,227.000000,,2013-01-14 21:02:00,
2013-01-14 13:12:00,26.0,19.0,-100.00,NNE,25,1.0,4.0,74,0.00,,,0.00,227.000000,,2013-01-14 21:12:00,
2013-01-14 13:22:00,26.0,19.0,-100.00,NNE,25,1.0,4.0,74,0.00,,,0.00,227.000000,,2013-01-14 21:22:00,
2013-01-14 13:33:00,26.0,19.0,-100.00,NNE,25,1.0,4.0,74,0.00,,,0.00,227.000000,,2013-01-14 21:33:00,
2013-01-14 13:42:00,26.0,19.0,-100.00,NNE,25,1.0,4.0,74,0.00,,,0.00,227.000000,,2013-01-14 21:42:00,
2013-01-14 14:12:00,23.0,18.0,-100.00,NE,53,3.0,9.0,82,0.00,,,0.00,205.000000,,2013-01-14 22:12:00,
2013-01-14 14:23:00,23.0,18.0,-100.00,NE,53,3.0,9.0,82,0.00,,,0.00,205.000000,,2013-01-14 22:23:00,
2013-01-14 14:32:00,23.0,18.0,-100.00,NE,53,3.0,9.0,82,0.00,,,0.00,205.000000,,2013-01-14 22:32:00,
2013-01-14 14:42:00,23.0,18.0,-100.00,NE,53,3.0,9.0,82,0.00,,,0.00,205.000000,,2013-01-14 22:42:00,
2013-01-14 15:12:00,23.0,18.0,-100.00,NE,38,0.0,6.0,82,0.00,,,0.00,87.000000,,2013-01-14 23:12:00,
2013-01-14 15:22:00,23.0,18.0,-100.00,NE,38,0.0,6.0,82,0.00,,,0.00,87.000000,,2013-01-14 23:22:00,
2013-01-14 15:32:00,23.0,18.0,-100.00,NE,38,0.0,6.0,82,0.00,,,0.00,87.000000,,2013-01-14 23:32:00,
2013-01-14 15:42:00,23.0,18.0,-100.00,NE,38,0.0,6.0,82,0.00,,,0.00,87.000000,,2013-01-14 23:42:00,
2013-01-14 16:12:00,21.0,18.0,-100.00,NNE,23,0.0,5.0,88,0.00,,,0.00,25.000000,,2013-01-15 00:12:00,
2013-01-14 16:22:00,21.0,18.0,-100.00,NNE,23,0.0,5.0,88,0.00,,,0.00,25.000000,,2013-01-15 00:22:00,
2013-01-14 16:32:00,21.0,18.0,-100.00,NNE,23,0.0,5.0,88,0.00,,,0.00,25.000000,,2013-01-15 00:32:00,
2013-01-14 16:42:00,21.0,18.0,-100.00,NNE,23,0.0,5.0,88,0.00,,,0.00,25.000000,,2013-01-15 00:42:00,
2013-01-14 17:12:00,19.0,17.0,-100.00,ESE,111,0.0,4.0,93,0.00,,,0.00,0.000000,,2013-01-15 01:12:00,
2013-01-14 17:22:00,19.0,17.0,-100.00,ESE,111,0.0,4.0,93,0.00,,,0.00,0.000000,,2013-01-15 01:22:00,
2013-01-14 17:32:00,19.0,17.0,-100.00,ESE,111,0.0,4.0,93,0.00,,,0.00,0.000000,,2013-01-15 01:32:00,
2013-01-14 17:42:00,19.0,17.0,-100.00,ESE,111,0.0,4.0,93,0.00,,,0.00,0.000000,,2013-01-15 01:42:00,
2013-01-14 18:12:00,19.0,18.0,-100.00,NNE,22,0.0,4.0,94,0.00,,,0.00,0.000000,,2013-01-15 02:12:00,
2013-01-14 18:22:00,19.0,18.0,-100.00,NNE,22,0.0,4.0,94,0.00,,,0.00,0.000000,,2013-01-15 02:22:00,
2013-01-14 18:32:00,19.0,18.0,-100.00,NNE,22,0.0,4.0,94,0.00,,,0.00,0.000000,,2013-01-15 02:32:00,
2013-01-14 18:42:00,19.0,18.0,-100.00,NNE,22,0.0,4.0,94,0.00,,,0.00,0.000000,,2013-01-15 02:42:00,
2013-01-14 19:12:00,18.0,17.0,-100.00,West,278,1.0,6.0,95,0.00,,,0.00,0.000000,,2013-01-15 03:12:00,
2013-01-14 19:22:00,18.0,17.0,-100.00,West,278,1.0,6.0,95,0.00,,,0.00,0.000000,,2013-01-15 03:22:00,
2013-01-14 19:32:00,18.0,17.0,-100.00,West,278,1.0,6.0,95,0.00,,,0.00,0.000000,,2013-01-15 03:32:00,
2013-01-14 19:42:00,18.0,17.0,-100.00,West,278,1.0,6.0,95,0.00,,,0.00,0.000000,,2013-01-15 03:42:00,
2013-01-14 20:12:00,18.0,17.0,-100.00,NE,40,0.0,4.0,94,0.00,,,0.00,0.000000,,2013-01-15 04:12:00,
2013-01-14 20:22:00,18.0,17.0,-100.00,NE,40,0.0,4.0,94,0.00,,,0.00,0.000000,,2013-01-15 04:22:00,
2013-01-14 20:32:00,18.0,17.0,-100.00,NE,40,0.0,4.0,94,0.00,,,0.00,0.000000,,2013-01-15 04:32:00,
2013-01-14 20:42:00,18.0,17.0,-100.00,NE,40,0.0,4.0,94,0.00,,,0.00,0.000000,,2013-01-15 04:42:00,
2013-01-14 21:12:00,17.0,16.0,-100.00,NW,322,0.0,4.0,94,0.00,,,0.00,0.000000,,2013-01-15 05:12:00,
2013-01-14 21:22:00,17.0,16.0,-100.00,NW,322,0.0,4.0,94,0.00,,,0.00,0.000000,,2013-01-15 05:22:00,
2013-01-14 21:33:00,17.0,16.0,-100.00,NW,322,0.0,4.0,94,0.00,,,0.00,0.000000,,2013-01-15 05:33:00,
2013-01-14 21:42:00,17.0,16.0,-100.00,NW,322,0.0,4.0,94,0.00,,,0.00,0.000000,,2013-01-15 05:42:00,
2013-01-14 22:12:00,14.0,12.0,-100.00,NNW,342,6.0,8.0,92,0.00,,,0.00,0.000000,,2013-01-15 06:12:00,
2013-01-14 22:22:00,14.0,12.0,-100.00,NNW,342,6.0,8.0,92,0.00,,,0.00,0.000000,,2013-01-15 06:22:00,
2013-01-14 22:32:00,14.0,12.0,-100.00,NNW,342,6.0,8.0,92,0.00,,,0.00,0.000000,,2013-01-15 06:32:00,
2013-01-14 22:42:00,14.0,12.0,-100.00,NNW,342,6.0,8.0,92,0.00,,,0.00,0.000000,,2013-01-15 06:42:00,
2013-01-14 23:12:00,10.0,7.0,-100.00,NNW,332,3.0,7.0,89,0.00,,,0.00,0.000000,,2013-01-15 07:12:00,
2013-01-14 23:22:00,10.0,7.0,-100.00,NNW,332,3.0,7.0,89,0.00,,,0.00,0.000000,,2013-01-15 07:22:00,
2013-01-14 23:32:00,10.0,7.0,-100.00,NNW,332,3.0,7.0,89,0.00,,,0.00,0.000000,,2013-01-15 07:32:00,
2013-01-14 23:42:00,10.0,7.0,-100.00,NNW,332,3.0,7.0,89,0.00,,,0.00,0.000000,,2013-01-15 07:42:00,